Current weather by "City, St" or "zip code"  
 
Advertise Here

Current Conditions: Jasper Walker County Airport amp; Bevill Field, AL

Partly Cloudy


86.0 F

Last Updated on Aug 4 2020, 4:55 pm CDT
Humidity: 59%
Wind Speed: NW 6.9 G 16.1 mph
Barometer 29.94 in
Dewpoint: 69.8 F
Visibility: 10.00 mi
Precip: --
Heat Index: 91 F
Wind Chill: NA
Current conditions at:

Jasper Walker County Airport amp; Bevill Field, AL (KJFX)

Lat: 33.902 Lon: 87.31417

Local Radar Image active severe weather and emergency alerts image image weather storm and storm spotter reports image weather observation monitoring service image
Local
Radar
Active
Alerts
Storm Reports Obs
Monitoring

Sign-up For Email & Text Message Weather Alert Notification Services


Advertise Here

Observation History for Jasper Walker County Airport amp; Bevill Field, AL


Time Wind
(mph)
Vis
(mi)
Weather Precip (in) Temperature (F) Relative
Humidity
Wind
Chill
(F)
Heat
Index
(F)
Pressure
Air Dwpt altimeter
(in)
sea level
(mb)
Rmks
4:55 pm CDT NW 6.9 G 16.1 10.00 Partly Cloudy -- 86.0 69.8 59% NA 91 29.94 M
3:55 pm CDT W 9.2 10.00 Fair -- 95.0 64.4 36% NA 97 29.94 M
2:55 pm CDT N 0.0 10.00 Fair -- 90.0 68.0 49% NA 94 29.95 M
1:55 pm CDT 3.5 10.00 Fair -- 95.0 68.0 41% NA 100 29.96 M
12:55 pm CDT N 0.0 10.00 Partly Cloudy -- 93.0 69.8 47% NA 99 29.98 M
11:55 am CDT N 0.0 10.00 A Few Clouds -- 90.0 69.8 52% NA 96 29.99 M
10:55 am CDT N 0.0 10.00 Fair -- 90.0 71.6 55% NA 97 29.99 M
9:55 am CDT N 0.0 10.00 Fair -- 86.0 69.8 59% NA 91 30.00 M
8:55 am CDT N 0.0 10.00 Fair -- 84.0 71.6 66% NA 89 29.98 M
7:55 am CDT N 0.0 10.00 Fair -- 73.0 73.4 100% NA NA 29.98 M
6:35 am CDT N 0.0 7.00 Fair -- 66.0 66.2 100% NA NA 29.97 M
5:55 am CDT N 0.0 9.00 Fair -- 66.0 66.2 100% NA NA 29.95 M
4:55 am CDT N 0.0 9.00 Fair -- 66.0 66.2 100% NA NA 29.95 M
3:55 am CDT N 0.0 8.00 Fair -- 68.0 68.0 100% NA NA 29.94 M
2:55 am CDT N 0.0 7.00 Fair -- 68.0 68.0 100% NA NA 29.93 M
1:55 am CDT N 0.0 5.00 Fog/Mist -- 68.0 68.0 100% NA NA 29.93 M
12:55 am CDT N 0.0 7.00 Fair -- 70.0 69.8 100% NA NA 29.94 M
11:55 pm CDT N 0.0 8.00 Fair -- 70.0 69.8 100% NA NA 29.95 M
10:55 pm CDT N 0.0 10.00 Fair -- 72.0 71.6 100% NA NA 29.94 M
9:55 pm CDT N 0.0 10.00 A Few Clouds -- 73.0 73.4 100% NA NA 29.94 M
8:55 pm CDT N 0.0 10.00 Fair -- 73.0 73.4 100% NA NA 29.94 M
7:55 pm CDT N 0.0 10.00 Fair -- 77.0 73.4 89% NA NA 29.92 M
6:55 pm CDT N 0.0 10.00 Fair -- 88.0 73.4 62% NA 96 29.91 M
5:55 pm CDT W 3.5 10.00 A Few Clouds -- 90.0 66.2 46% NA 93 29.91 M

Regional Weather Observation


Jasper Walker County Airport amp; Bevill Field, AL (KJFX)

Partly Cloudy
86.0 F

Muscle Shoals, North West Alabama Regional Airport, AL (KMSL)

A Few Clouds
88.0 F

Folsom Field Airport, AL (K3A1)

Partly Cloudy
82.0 F

Tuscaloosa Regional Airport, AL (KTCL)

Fair
91.0 F

Decatur, Pryor Field, AL (KDCU)

Overcast
79.0 F

Huntsville, Huntsville International / Jones Field, AL (KHSV)

Light Rain
77.0 F